Time,TemperatureF,DewpointF,PressureIn,WindDirection,WindDirectionDegrees,WindSpeedMPH,WindSpeedGustMPH,Humidity,HourlyPrecipIn,Conditions,Clouds,dailyrainin,SoftwareType,DateUTC
2013-04-25 00:01:00,55.0,53.0,-100.00,North,8,0.0,1.0,93,-99.99,,,-99.99,,2013-04-25 07:01:00,
2013-04-25 00:11:00,55.0,53.0,-100.00,North,10,0.0,1.0,94,-99.99,,,-99.99,,2013-04-25 07:11:00,
2013-04-25 00:21:00,55.0,53.0,-100.00,NNE,32,0.0,1.0,94,-99.99,,,-99.99,,2013-04-25 07:21:00,
2013-04-25 00:31:00,55.0,53.0,-100.00,North,350,0.0,1.0,94,-99.99,,,-99.99,,2013-04-25 07:31:00,
2013-04-25 00:42:00,55.0,53.0,-100.00,North,0,0.0,1.0,94,-99.99,,,-99.99,,2013-04-25 07:42:00,
2013-04-25 00:52:00,55.0,53.0,-100.00,North,10,0.0,1.0,94,-99.99,,,-99.99,,2013-04-25 07:52:00,
2013-04-25 01:01:00,55.0,53.0,-100.00,NNE,33,0.0,1.0,94,-99.99,,,-99.99,,2013-04-25 08:01:00,
2013-04-25 01:11:00,55.0,53.0,-100.00,North,6,0.0,1.0,94,-99.99,,,-99.99,,2013-04-25 08:11:00,
2013-04-25 01:21:00,55.0,53.0,-100.00,NE,43,0.0,1.0,94,-99.99,,,-99.99,,2013-04-25 08:21:00,
2013-04-25 01:31:00,54.0,53.0,-100.00,North,358,0.0,1.0,95,-99.99,,,-99.99,,2013-04-25 08:31:00,
2013-04-25 01:41:00,54.0,53.0,-100.00,NNE,30,0.0,1.0,95,-99.99,,,-99.99,,2013-04-25 08:41:00,
2013-04-25 01:51:00,54.0,53.0,-100.00,ENE,61,0.0,1.0,95,-99.99,,,-99.99,,2013-04-25 08:51:00,
2013-04-25 02:01:00,54.0,53.0,-100.00,NNE,25,0.0,1.0,95,-99.99,,,-99.99,,2013-04-25 09:01:00,
2013-04-25 02:11:00,54.0,52.0,-100.00,NE,48,1.0,1.0,94,-99.99,,,-99.99,,2013-04-25 09:11:00,
2013-04-25 02:21:00,54.0,52.0,-100.00,NE,35,0.0,1.0,94,-99.99,,,-99.99,,2013-04-25 09:21:00,
2013-04-25 02:32:00,55.0,53.0,-100.00,NNE,23,0.0,1.0,94,-99.99,,,-99.99,,2013-04-25 09:32:00,
2013-04-25 02:42:00,54.0,52.0,-100.00,NE,44,1.0,1.0,93,-99.99,,,-99.99,,2013-04-25 09:42:00,
2013-04-25 02:52:00,54.0,52.0,-100.00,NE,40,0.0,1.0,93,-99.99,,,-99.99,,2013-04-25 09:52:00,
2013-04-25 03:02:00,54.0,52.0,-100.00,NE,44,1.0,2.0,92,-99.99,,,-99.99,,2013-04-25 10:02:00,
2013-04-25 03:12:00,54.0,51.0,-100.00,NE,45,1.0,2.0,91,-99.99,,,-99.99,,2013-04-25 10:12:00,
2013-04-25 03:22:00,54.0,51.0,-100.00,NE,49,0.0,1.0,90,-99.99,,,-99.99,,2013-04-25 10:22:00,
2013-04-25 03:32:00,54.0,51.0,-100.00,NW,319,0.0,1.0,91,-99.99,,,-99.99,,2013-04-25 10:32:00,
2013-04-25 03:42:00,54.0,52.0,-100.00,WNW,295,0.0,1.0,92,-99.99,,,-99.99,,2013-04-25 10:42:00,
2013-04-25 03:52:00,54.0,52.0,-100.00,NW,313,0.0,1.0,92,-99.99,,,-99.99,,2013-04-25 10:52:00,
2013-04-25 04:02:00,54.0,52.0,-100.00,ENE,70,0.0,1.0,93,-99.99,,,-99.99,,2013-04-25 11:02:00,
2013-04-25 04:12:00,54.0,52.0,-100.00,NE,34,0.0,1.0,93,-99.99,,,-99.99,,2013-04-25 11:12:00,
2013-04-25 04:22:00,54.0,52.0,-100.00,NNE,22,1.0,1.0,93,-99.99,,,-99.99,,2013-04-25 11:22:00,
2013-04-25 04:32:00,54.0,52.0,-100.00,NNE,19,0.0,1.0,93,-99.99,,,-99.99,,2013-04-25 11:32:00,
2013-04-25 04:42:00,54.0,52.0,-100.00,NNW,341,0.0,1.0,93,-99.99,,,-99.99,,2013-04-25 11:42:00,
2013-04-25 04:51:00,54.0,52.0,-100.00,NNE,29,0.0,1.0,94,-99.99,,,-99.99,,2013-04-25 11:51:00,
2013-04-25 05:01:00,54.0,52.0,-100.00,NW,320,0.0,1.0,94,-99.99,,,-99.99,,2013-04-25 12:01:00,
2013-04-25 05:12:00,54.0,52.0,-100.00,NNE,16,0.0,1.0,94,-99.99,,,-99.99,,2013-04-25 12:12:00,
2013-04-25 05:21:00,54.0,52.0,-100.00,NW,326,0.0,1.0,94,-99.99,,,-99.99,,2013-04-25 12:21:00,
2013-04-25 05:31:00,54.0,52.0,-100.00,North,360,0.0,1.0,94,-99.99,,,-99.99,,2013-04-25 12:31:00,
2013-04-25 05:41:00,54.0,52.0,-100.00,North,360,0.0,1.0,94,-99.99,,,-99.99,,2013-04-25 12:41:00,
2013-04-25 05:51:00,54.0,52.0,-100.00,NE,54,0.0,1.0,94,-99.99,,,-99.99,,2013-04-25 12:51:00,
2013-04-25 06:02:00,54.0,52.0,-100.00,NE,54,0.0,1.0,94,-99.99,,,-99.99,,2013-04-25 13:02:00,
2013-04-25 06:11:00,54.0,52.0,-100.00,NE,54,0.0,1.0,94,-99.99,,,-99.99,,2013-04-25 13:11:00,
2013-04-25 06:21:00,54.0,52.0,-100.00,ENE,67,0.0,1.0,94,-99.99,,,-99.99,,2013-04-25 13:21:00,
2013-04-25 06:31:00,54.0,52.0,-100.00,ENE,57,0.0,1.0,94,-99.99,,,-99.99,,2013-04-25 13:31:00,
2013-04-25 06:42:00,54.0,52.0,-100.00,NNE,14,1.0,1.0,94,-99.99,,,-99.99,,2013-04-25 13:42:00,
2013-04-25 06:52:00,54.0,52.0,-100.00,NNE,12,0.0,1.0,93,-99.99,,,-99.99,,2013-04-25 13:52:00,
2013-04-25 07:01:00,54.0,52.0,-100.00,NE,48,1.0,1.0,93,-99.99,,,-99.99,,2013-04-25 14:01:00,
2013-04-25 07:11:00,54.0,52.0,-100.00,NE,38,0.0,1.0,94,-99.99,,,-99.99,,2013-04-25 14:11:00,
2013-04-25 07:21:00,54.0,52.0,-100.00,NW,321,0.0,1.0,94,-99.99,,,-99.99,,2013-04-25 14:21:00,
2013-04-25 07:32:00,54.0,52.0,-100.00,NW,323,1.0,2.0,93,-99.99,,,-99.99,,2013-04-25 14:32:00,
2013-04-25 07:42:00,55.0,53.0,-100.00,North,354,0.0,1.0,93,-99.99,,,-99.99,,2013-04-25 14:42:00,
2013-04-25 07:51:00,55.0,53.0,-100.00,WNW,298,0.0,1.0,93,-99.99,,,-99.99,,2013-04-25 14:51:00,
2013-04-25 08:01:00,55.0,53.0,-100.00,WNW,298,0.0,1.0,93,-99.99,,,-99.99,,2013-04-25 15:01:00,
2013-04-25 08:11:00,56.0,53.0,-100.00,West,272,0.0,1.0,90,-99.99,,,-99.99,,2013-04-25 15:11:00,
2013-04-25 08:21:00,56.0,52.0,-100.00,West,263,0.0,1.0,88,-99.99,,,-99.99,,2013-04-25 15:21:00,
2013-04-25 08:33:00,57.0,53.0,-100.00,WSW,251,0.0,1.0,86,-99.99,,,-99.99,,2013-04-25 15:33:00,
2013-04-25 08:42:00,57.0,53.0,-100.00,WSW,251,0.0,1.0,86,-99.99,,,-99.99,,2013-04-25 15:42:00,
2013-04-25 08:52:00,58.0,52.0,-100.00,West,260,1.0,2.0,81,-99.99,,,-99.99,,2013-04-25 15:52:00,
2013-04-25 09:02:00,58.0,52.0,-100.00,West,260,1.0,2.0,81,-99.99,,,-99.99,,2013-04-25 16:02:00,
2013-04-25 09:13:00,59.0,50.0,-100.00,WNW,294,1.0,2.0,71,-99.99,,,-99.99,,2013-04-25 16:13:00,
2013-04-25 09:24:00,60.0,49.0,-100.00,East,87,1.0,2.0,66,-99.99,,,-99.99,,2013-04-25 16:24:00,
2013-04-25 09:32:00,60.0,48.0,-100.00,SSW,200,1.0,2.0,65,-99.99,,,-99.99,,2013-04-25 16:32:00,
2013-04-25 09:42:00,61.0,49.0,-100.00,SSE,147,0.0,1.0,65,-99.99,,,-99.99,,2013-04-25 16:42:00,
2013-04-25 09:52:00,61.0,49.0,-100.00,SE,128,1.0,2.0,64,-99.99,,,-99.99,,2013-04-25 16:52:00,
2013-04-25 10:02:00,62.0,49.0,-100.00,SSW,203,1.0,3.0,62,-99.99,,,-99.99,,2013-04-25 17:02:00,
2013-04-25 10:11:00,62.0,49.0,-100.00,South,169,1.0,3.0,62,-99.99,,,-99.99,,2013-04-25 17:11:00,
2013-04-25 10:22:00,62.0,47.0,-100.00,SW,225,2.0,5.0,59,-99.99,,,-99.99,,2013-04-25 17:22:00,
2013-04-25 10:31:00,62.0,47.0,-100.00,SW,225,2.0,5.0,59,-99.99,,,-99.99,,2013-04-25 17:31:00,
2013-04-25 10:41:00,62.0,47.0,-100.00,WSW,243,3.0,6.0,58,-99.99,,,-99.99,,2013-04-25 17:41:00,
2013-04-25 10:53:00,62.0,46.0,-100.00,WSW,254,2.0,5.0,56,-99.99,,,-99.99,,2013-04-25 17:53:00,
2013-04-25 11:01:00,62.0,46.0,-100.00,WSW,254,2.0,5.0,56,-99.99,,,-99.99,,2013-04-25 18:01:00,
2013-04-25 11:11:00,64.0,47.0,-100.00,SW,220,2.0,6.0,55,-99.99,,,-99.99,,2013-04-25 18:11:00,
2013-04-25 11:21:00,65.0,47.0,-100.00,ESE,118,2.0,5.0,53,-99.99,,,-99.99,,2013-04-25 18:21:00,
2013-04-25 11:32:00,66.0,47.0,-100.00,SW,218,2.0,8.0,50,-99.99,,,-99.99,,2013-04-25 18:32:00,
2013-04-25 11:42:00,65.0,46.0,-100.00,West,278,3.0,9.0,50,-99.99,,,-99.99,,2013-04-25 18:42:00,
2013-04-25 11:52:00,66.0,46.0,-100.00,WNW,294,3.0,9.0,49,-99.99,,,-99.99,,2013-04-25 18:52:00,
2013-04-25 12:01:00,66.0,46.0,-100.00,WNW,294,3.0,9.0,49,-99.99,,,-99.99,,2013-04-25 19:01:00,
2013-04-25 12:12:00,65.0,46.0,-100.00,WSW,239,3.0,7.0,50,-99.99,,,-99.99,,2013-04-25 19:12:00,
2013-04-25 12:21:00,65.0,46.0,-100.00,West,260,4.0,7.0,50,-99.99,,,-99.99,,2013-04-25 19:21:00,
2013-04-25 12:31:00,66.0,47.0,-100.00,SW,231,2.0,8.0,50,-99.99,,,-99.99,,2013-04-25 19:31:00,
2013-04-25 12:41:00,65.0,49.0,-100.00,WSW,243,5.0,12.0,56,-99.99,,,-99.99,,2013-04-25 19:41:00,
2013-04-25 12:52:00,64.0,49.0,-100.00,WSW,239,6.0,12.0,59,-99.99,,,-99.99,,2013-04-25 19:52:00,
2013-04-25 13:01:00,65.0,50.0,-100.00,WSW,240,5.0,10.0,58,-99.99,,,-99.99,,2013-04-25 20:01:00,
2013-04-25 13:11:00,64.0,48.0,-100.00,SW,236,4.0,10.0,57,-99.99,,,-99.99,,2013-04-25 20:11:00,
2013-04-25 13:22:00,65.0,49.0,-100.00,SW,230,4.0,8.0,56,-99.99,,,-99.99,,2013-04-25 20:22:00,
2013-04-25 13:32:00,65.0,49.0,-100.00,SW,230,4.0,8.0,56,-99.99,,,-99.99,,2013-04-25 20:32:00,
2013-04-25 13:42:00,67.0,49.0,-100.00,South,187,3.0,9.0,52,-99.99,,,-99.99,,2013-04-25 20:42:00,
2013-04-25 13:51:00,66.0,48.0,-100.00,SW,230,3.0,6.0,52,-99.99,,,-99.99,,2013-04-25 20:51:00,
2013-04-25 14:01:00,66.0,48.0,-100.00,SW,218,2.0,6.0,52,-99.99,,,-99.99,,2013-04-25 21:01:00,
2013-04-25 14:11:00,66.0,48.0,-100.00,WSW,239,2.0,7.0,52,-99.99,,,-99.99,,2013-04-25 21:11:00,
2013-04-25 14:21:00,66.0,48.0,-100.00,SSW,206,3.0,8.0,52,-99.99,,,-99.99,,2013-04-25 21:21:00,
2013-04-25 14:33:00,66.0,47.0,-100.00,SSW,194,1.0,4.0,51,-99.99,,,-99.99,,2013-04-25 21:33:00,
2013-04-25 14:42:00,66.0,47.0,-100.00,SSW,198,2.0,6.0,51,-99.99,,,-99.99,,2013-04-25 21:42:00,
2013-04-25 14:52:00,68.0,48.0,-100.00,WSW,251,6.0,13.0,48,-99.99,,,-99.99,,2013-04-25 21:52:00,
2013-04-25 15:02:00,68.0,47.0,-100.00,WSW,241,4.0,10.0,47,-99.99,,,-99.99,,2013-04-25 22:02:00,
2013-04-25 15:12:00,68.0,48.0,-100.00,SW,232,5.0,13.0,48,-99.99,,,-99.99,,2013-04-25 22:12:00,
2013-04-25 15:22:00,69.0,48.0,-100.00,SW,236,5.0,10.0,47,-99.99,,,-99.99,,2013-04-25 22:22:00,
2013-04-25 15:32:00,69.0,47.0,-100.00,SW,235,4.0,10.0,46,-99.99,,,-99.99,,2013-04-25 22:32:00,
2013-04-25 15:42:00,69.0,48.0,-100.00,West,261,4.0,11.0,47,-99.99,,,-99.99,,2013-04-25 22:42:00,
2013-04-25 15:52:00,70.0,48.0,-100.00,WSW,237,3.0,8.0,45,-99.99,,,-99.99,,2013-04-25 22:52:00,
2013-04-25 16:02:00,70.0,47.0,-100.00,SW,236,4.0,10.0,44,-99.99,,,-99.99,,2013-04-25 23:02:00,
2013-04-25 16:12:00,71.0,48.0,-100.00,SW,232,4.0,10.0,44,-99.99,,,-99.99,,2013-04-25 23:12:00,
2013-04-25 16:21:00,70.0,47.0,-100.00,SW,228,5.0,10.0,44,-99.99,,,-99.99,,2013-04-25 23:21:00,
2013-04-25 16:32:00,70.0,48.0,-100.00,SW,236,5.0,12.0,45,-99.99,,,-99.99,,2013-04-25 23:32:00,
2013-04-25 16:41:00,70.0,48.0,-100.00,WSW,239,5.0,11.0,45,-99.99,,,-99.99,,2013-04-25 23:41:00,
2013-04-25 16:52:00,70.0,48.0,-100.00,SW,227,4.0,10.0,45,-99.99,,,-99.99,,2013-04-25 23:52:00,
2013-04-25 17:01:00,69.0,47.0,-100.00,WSW,241,6.0,13.0,45,-99.99,,,-99.99,,2013-04-26 00:01:00,
2013-04-25 17:11:00,70.0,46.0,-100.00,SW,228,5.0,12.0,43,-99.99,,,-99.99,,2013-04-26 00:11:00,
2013-04-25 17:21:00,70.0,46.0,-100.00,SW,229,5.0,12.0,43,-99.99,,,-99.99,,2013-04-26 00:21:00,
2013-04-25 17:31:00,69.0,46.0,-100.00,SSW,212,4.0,9.0,43,-99.99,,,-99.99,,2013-04-26 00:31:00,
2013-04-25 17:41:00,69.0,46.0,-100.00,SW,235,5.0,11.0,43,-99.99,,,-99.99,,2013-04-26 00:41:00,
2013-04-25 17:51:00,68.0,46.0,-100.00,WSW,243,6.0,11.0,45,-99.99,,,-99.99,,2013-04-26 00:51:00,
2013-04-25 18:01:00,68.0,47.0,-100.00,SW,226,4.0,8.0,47,-99.99,,,-99.99,,2013-04-26 01:01:00,
2013-04-25 18:11:00,68.0,47.0,-100.00,SW,217,4.0,8.0,47,-99.99,,,-99.99,,2013-04-26 01:11:00,
2013-04-25 18:21:00,67.0,47.0,-100.00,SW,227,4.0,9.0,48,-99.99,,,-99.99,,2013-04-26 01:21:00,
2013-04-25 18:31:00,67.0,47.0,-100.00,SW,227,4.0,9.0,48,-99.99,,,-99.99,,2013-04-26 01:31:00,
2013-04-25 18:41:00,68.0,48.0,-100.00,SW,223,4.0,9.0,48,-99.99,,,-99.99,,2013-04-26 01:41:00,
2013-04-25 18:52:00,67.0,46.0,-100.00,SW,215,3.0,7.0,47,-99.99,,,-99.99,,2013-04-26 01:52:00,
2013-04-25 19:01:00,67.0,47.0,-100.00,SW,230,3.0,7.0,48,-99.99,,,-99.99,,2013-04-26 02:01:00,
2013-04-25 19:11:00,66.0,47.0,-100.00,SSW,202,3.0,8.0,50,-99.99,,,-99.99,,2013-04-26 02:11:00,
2013-04-25 19:21:00,65.0,47.0,-100.00,SW,227,4.0,10.0,52,-99.99,,,-99.99,,2013-04-26 02:21:00,
2013-04-25 19:31:00,64.0,48.0,-100.00,WSW,247,5.0,9.0,56,-99.99,,,-99.99,,2013-04-26 02:31:00,
2013-04-25 19:42:00,63.0,48.0,-100.00,WSW,240,3.0,7.0,59,-99.99,,,-99.99,,2013-04-26 02:42:00,
2013-04-25 19:51:00,62.0,49.0,-100.00,SW,232,2.0,6.0,62,-99.99,,,-99.99,,2013-04-26 02:51:00,
2013-04-25 20:01:00,62.0,49.0,-100.00,SW,232,2.0,6.0,62,-99.99,,,-99.99,,2013-04-26 03:01:00,
2013-04-25 20:11:00,61.0,49.0,-100.00,SE,135,0.0,1.0,65,-99.99,,,-99.99,,2013-04-26 03:11:00,
2013-04-25 20:21:00,60.0,49.0,-100.00,East,79,1.0,1.0,66,-99.99,,,-99.99,,2013-04-26 03:21:00,
2013-04-25 20:33:00,59.0,48.0,-100.00,East,93,1.0,2.0,68,-99.99,,,-99.99,,2013-04-26 03:33:00,
2013-04-25 20:43:00,59.0,49.0,-100.00,East,82,0.0,1.0,70,-99.99,,,-99.99,,2013-04-26 03:43:00,
2013-04-25 20:52:00,58.0,48.0,-100.00,ENE,69,2.0,4.0,69,-99.99,,,-99.99,,2013-04-26 03:52:00,
2013-04-25 21:02:00,58.0,48.0,-100.00,ENE,69,2.0,4.0,69,-99.99,,,-99.99,,2013-04-26 04:02:00,
2013-04-25 21:12:00,57.0,47.0,-100.00,NNE,25,1.0,2.0,70,-99.99,,,-99.99,,2013-04-26 04:12:00,
2013-04-25 21:22:00,57.0,48.0,-100.00,North,5,1.0,2.0,71,-99.99,,,-99.99,,2013-04-26 04:22:00,
2013-04-25 21:32:00,57.0,48.0,-100.00,North,6,1.0,2.0,71,-99.99,,,-99.99,,2013-04-26 04:32:00,
2013-04-25 21:43:00,56.0,47.0,-100.00,NNE,33,1.0,2.0,72,-99.99,,,-99.99,,2013-04-26 04:43:00,
2013-04-25 21:52:00,55.0,47.0,-100.00,NNE,18,1.0,2.0,73,-99.99,,,-99.99,,2013-04-26 04:52:00,
2013-04-25 22:02:00,54.0,46.0,-100.00,NNE,12,1.0,2.0,74,-99.99,,,-99.99,,2013-04-26 05:02:00,
2013-04-25 22:12:00,54.0,46.0,-100.00,North,356,1.0,3.0,75,-99.99,,,-99.99,,2013-04-26 05:12:00,
2013-04-25 22:22:00,54.0,47.0,-100.00,NNW,345,1.0,3.0,76,-99.99,,,-99.99,,2013-04-26 05:22:00,
2013-04-25 22:32:00,54.0,47.0,-100.00,North,349,1.0,2.0,76,-99.99,,,-99.99,,2013-04-26 05:32:00,
2013-04-25 22:41:00,54.0,47.0,-100.00,NNW,345,0.0,1.0,76,-99.99,,,-99.99,,2013-04-26 05:41:00,
2013-04-25 22:52:00,54.0,47.0,-100.00,NNW,333,1.0,1.0,77,-99.99,,,-99.99,,2013-04-26 05:52:00,
2013-04-25 23:02:00,54.0,47.0,-100.00,North,354,0.0,1.0,77,-99.99,,,-99.99,,2013-04-26 06:02:00,
2013-04-25 23:11:00,53.0,46.0,-100.00,WNW,284,0.0,1.0,77,-99.99,,,-99.99,,2013-04-26 06:11:00,
2013-04-25 23:21:00,52.0,45.0,-100.00,SW,226,0.0,1.0,77,-99.99,,,-99.99,,2013-04-26 06:21:00,
2013-04-25 23:32:00,53.0,46.0,-100.00,ENE,72,0.0,1.0,77,-99.99,,,-99.99,,2013-04-26 06:32:00,
2013-04-25 23:41:00,51.0,44.0,-100.00,SE,140,0.0,1.0,77,-99.99,,,-99.99,,2013-04-26 06:41:00,
2013-04-25 23:51:00,50.0,44.0,-100.00,WSW,237,0.0,1.0,79,-99.99,,,-99.99,,2013-04-26 06:51:00,